Location: Kelshall
(52.0000°N, 0.0500°W)
Time: 13:20:35
(UTC+00:00)

Okean 1 Rocket - Visible Passes

Search period start: 16 January 2021 00:00
Search period end: 26 January 2021 00:00
Orbit: 607 x 634 km, 82.5° (Epoch: 15 January)

Date Brightness Start Highest point End Pass type
(mag) Time Alt. Az. Time Alt. Az. Time Alt. Az.
16 Jan 3.6 04:56:11 53° SE 04:56:44 57° E 05:01:09 10° NNE visible
16 Jan 4.3 06:33:31 18° W 06:35:01 21° WNW 06:38:25 10° NNW visible
17 Jan 6.1 03:38:19 13° ENE 03:38:19 13° ENE 03:39:28 10° NE visible
17 Jan 3.5 05:15:35 52° N 05:15:35 52° N 05:19:02 10° N visible
17 Jan 4.8 06:52:51 13° WNW 06:53:11 13° WNW 06:55:22 10° NNW visible
18 Jan 5.8 03:57:02 15° NE 03:57:02 15° NE 03:58:15 10° NE visible
18 Jan 4.2 05:34:16 30° NNW 05:34:16 30° NNW 05:36:46 10° N visible
18 Jan 6.0 17:10:19 10° NW 17:12:38 14° W 17:14:55 10° WSW visible
19 Jan 5.6 04:15:26 16° NNE 04:15:26 16° NNE 04:16:31 10° NNE visible
19 Jan 4.7 05:52:39 19° NNW 05:52:39 19° NNW 05:54:20 10° N visible
20 Jan 5.5 04:33:39 16° NNE 04:33:39 16° NNE 04:34:32 10° NNE visible
20 Jan 5.1 06:10:51 13° NNW 06:10:51 13° NNW 06:11:41 10° NNW visible
21 Jan 5.5 04:51:45 14° N 04:51:45 14° N 04:52:24 10° N visible
22 Jan 5.5 05:09:45 12° N 05:09:45 12° N 05:10:06 10° N visible
